Location: Haram ta Haram Freeway
(35.0583°N, 51.4202°E)
Time: 17:18:05
(UTC+04:30)

Envisat - Visible Passes

Search period start: 06 April 2020 00:00
Search period end: 16 April 2020 00:00
Orbit: 764 x 766 km, 98.1° (Epoch: 05 April)

Date Brightness Start Highest point End Pass type
(mag) Time Alt. Az. Time Alt. Az. Time Alt. Az.
06 Apr 6.3 06:15:06 10° ENE 06:17:15 13° E 06:19:25 10° ESE visible
07 Apr 6.1 20:07:30 10° SW 20:10:16 15° W 20:13:02 10° WNW visible
10 Apr 5.9 19:55:18 10° SW 19:58:51 19° W 20:02:25 10° NW visible
15 Apr 6.1 20:10:48 10° WSW 20:13:08 13° W 20:15:30 10° WNW visible
